DLH100 EDDF-EDDM

Flight info

Callsign DLH100
Flight time 0h 32m
Altitude 23000
Route CINDY6F CINDY Z74 HAREM T104 ROKIL ROKIL1A
Aircraft A319/M-SDE3FGHIRWY/LB1

Departure

Time 2026-05-06 12:47
Airport Frankfurt Main Airport (EDDF)

Arrival

Time 2026-05-06 13:19
Airport Munich Airport (EDDM)
Time Latitude Longitude Altitude Speed Heading
2026-05-06 12:03 50.03146 8.57961 356 ft 0 kts 70°
2026-05-06 12:08 50.03307 8.57838 362 ft 0 kts 70°
2026-05-06 12:08 50.03184 8.58121 361 ft 0 kts 250°
2026-05-06 12:09 50.03232 8.58097 357 ft 0 kts 250°
2026-05-06 12:10 50.03420 8.57772 361 ft 0 kts 70°
2026-05-06 12:12 50.02969 8.57680 360 ft 0 kts 25°
2026-05-06 12:32 50.02968 8.57679 356 ft 1 kts 25°
2026-05-06 12:33 50.02946 8.57664 363 ft 4 kts 24°
2026-05-06 12:33 50.02922 8.57646 361 ft 3 kts 24°
2026-05-06 12:33 50.02902 8.57635 360 ft 4 kts 348°
2026-05-06 12:33 50.02884 8.57657 360 ft 4 kts 276°
2026-05-06 12:34 50.02884 8.57649 359 ft 4 kts 272°
2026-05-06 12:34 50.02884 8.57632 357 ft 0 kts 272°
2026-05-06 12:38 50.02884 8.57621 359 ft 3 kts 272°
2026-05-06 12:38 50.02890 8.57558 360 ft 7 kts 289°
2026-05-06 12:39 50.02912 8.57481 357 ft 9 kts 296°
2026-05-06 12:39 50.02942 8.57381 355 ft 11 kts 295°
2026-05-06 12:39 50.02976 8.57266 353 ft 12 kts 295°
2026-05-06 12:39 50.03015 8.57137 354 ft 14 kts 294°
2026-05-06 12:40 50.03055 8.56997 355 ft 15 kts 298°
2026-05-06 12:40 50.03127 8.56916 357 ft 12 kts 340°
2026-05-06 12:40 50.03205 8.56872 357 ft 13 kts 341°
2026-05-06 12:40 50.03270 8.56795 354 ft 13 kts 278°
2026-05-06 12:41 50.03240 8.56637 352 ft 17 kts 249°
2026-05-06 12:41 50.03198 8.56460 353 ft 18 kts 250°
2026-05-06 12:41 50.03155 8.56275 352 ft 19 kts 250°
2026-05-06 12:41 50.03106 8.56068 347 ft 22 kts 249°
2026-05-06 12:42 50.03051 8.55843 348 ft 23 kts 250°
2026-05-06 12:42 50.02995 8.55609 348 ft 23 kts 249°
2026-05-06 12:42 50.02938 8.55367 350 ft 24 kts 249°
2026-05-06 12:42 50.02878 8.55127 348 ft 25 kts 250°
2026-05-06 12:43 50.02817 8.54870 346 ft 26 kts 250°
2026-05-06 12:43 50.02754 8.54605 337 ft 26 kts 250°
2026-05-06 12:43 50.02690 8.54334 339 ft 27 kts 250°
2026-05-06 12:43 50.02642 8.54085 334 ft 16 kts 248°
2026-05-06 12:44 50.02599 8.53912 335 ft 19 kts 249°
2026-05-06 12:44 50.02554 8.53719 333 ft 19 kts 249°
2026-05-06 12:44 50.02507 8.53524 334 ft 19 kts 250°
2026-05-06 12:44 50.02458 8.53322 336 ft 20 kts 250°
2026-05-06 12:45 50.02406 8.53107 334 ft 22 kts 250°
2026-05-06 12:45 50.02352 8.52883 331 ft 20 kts 248°
2026-05-06 12:45 50.02305 8.52688 332 ft 8 kts 250°
2026-05-06 12:46 50.02273 8.52609 334 ft 9 kts 209°
2026-05-06 12:46 50.02227 8.52605 335 ft 0 kts 179°
2026-05-06 12:46 50.02223 8.52605 335 ft 3 kts 179°
2026-05-06 12:46 50.01993 8.52608 335 ft 80 kts 179°
2026-05-06 12:47 50.01115 8.52613 372 ft 162 kts 180°
2026-05-06 12:47 50.00036 8.52603 1533 ft 153 kts 183°
2026-05-06 12:47 49.98973 8.52603 2644 ft 150 kts 182°
2026-05-06 12:47 49.97955 8.52643 3571 ft 142 kts 181°
2026-05-06 12:48 49.96964 8.52701 4177 ft 151 kts 180°
2026-05-06 12:48 49.95796 8.53242 4051 ft 207 kts 145°
2026-05-06 12:48 49.94921 8.55252 4453 ft 239 kts 118°
2026-05-06 12:48 49.94246 8.57643 5391 ft 245 kts 115°
2026-05-06 12:49 49.93566 8.60118 6142 ft 262 kts 116°
2026-05-06 12:49 49.92781 8.62795 6882 ft 279 kts 117°
2026-05-06 12:49 49.91912 8.65558 7893 ft 285 kts 119°
2026-05-06 12:49 49.90993 8.68311 8959 ft 290 kts 120°
2026-05-06 12:50 49.90027 8.71096 9957 ft 297 kts 121°
2026-05-06 12:50 49.88987 8.74013 10396 ft 321 kts 121°
2026-05-06 12:50 49.87881 8.77066 11068 ft 334 kts 122°
2026-05-06 12:50 49.86728 8.80237 11978 ft 339 kts 122°
2026-05-06 12:51 49.85563 8.83443 12905 ft 343 kts 122°
2026-05-06 12:51 49.84388 8.86678 13796 ft 347 kts 122°
2026-05-06 12:51 49.83192 8.89975 14615 ft 351 kts 122°
2026-05-06 12:51 49.81989 8.93292 15437 ft 354 kts 122°
2026-05-06 12:52 49.80784 8.96612 16237 ft 358 kts 122°
2026-05-06 12:52 49.79554 8.99995 17036 ft 361 kts 122°
2026-05-06 12:52 49.78313 9.03403 17850 ft 365 kts 122°
2026-05-06 12:52 49.77072 9.06812 18558 ft 369 kts 121°
2026-05-06 12:53 49.76037 9.10491 19246 ft 376 kts 110°
2026-05-06 12:53 49.75353 9.14446 19919 ft 380 kts 108°
2026-05-06 12:53 49.74402 9.18213 20569 ft 381 kts 119°
2026-05-06 12:53 49.72994 9.21681 21257 ft 382 kts 130°
2026-05-06 12:54 49.71247 9.24819 21953 ft 385 kts 134°
2026-05-06 12:54 49.69469 9.27942 22573 ft 389 kts 133°
2026-05-06 12:54 49.67682 9.31094 22753 ft 390 kts 133°
2026-05-06 12:54 49.65927 9.34203 22789 ft 386 kts 133°
2026-05-06 12:55 49.64173 9.37312 22785 ft 384 kts 133°
2026-05-06 12:55 49.62415 9.40421 22793 ft 384 kts 133°
2026-05-06 12:55 49.60648 9.43531 22788 ft 383 kts 133°
2026-05-06 12:55 49.58894 9.46614 22793 ft 383 kts 133°
2026-05-06 12:56 49.57131 9.49716 22789 ft 382 kts 133°
2026-05-06 12:56 49.55402 9.52756 22789 ft 381 kts 133°
2026-05-06 12:56 49.53650 9.55825 22795 ft 381 kts 134°
2026-05-06 12:56 49.51901 9.58882 22792 ft 381 kts 134°
2026-05-06 12:57 49.50145 9.61947 22800 ft 380 kts 134°
2026-05-06 12:57 49.48394 9.65001 22800 ft 380 kts 134°
2026-05-06 12:57 49.46639 9.68058 22805 ft 380 kts 134°
2026-05-06 12:57 49.44909 9.71070 22802 ft 380 kts 134°
2026-05-06 12:58 49.43149 9.74135 22813 ft 379 kts 134°
2026-05-06 12:58 49.41417 9.77147 22812 ft 379 kts 134°
2026-05-06 12:58 49.39663 9.80197 22819 ft 379 kts 134°
2026-05-06 12:58 49.37918 9.83236 22821 ft 379 kts 134°
2026-05-06 12:59 49.36170 9.86268 22817 ft 379 kts 134°
2026-05-06 12:59 49.34426 9.89283 22808 ft 379 kts 134°
2026-05-06 12:59 49.32689 9.92276 22801 ft 379 kts 134°
2026-05-06 12:59 49.30915 9.95327 22807 ft 379 kts 134°
2026-05-06 13:00 49.29174 9.98321 22818 ft 379 kts 134°
2026-05-06 13:00 49.27417 10.01339 22817 ft 379 kts 135°
2026-05-06 13:00 49.25661 10.04352 22818 ft 379 kts 135°
2026-05-06 13:00 49.23931 10.07319 22813 ft 378 kts 135°
2026-05-06 13:01 49.22157 10.10357 22814 ft 378 kts 135°
2026-05-06 13:01 49.20419 10.13330 22817 ft 378 kts 135°
2026-05-06 13:01 49.18665 10.16323 22809 ft 378 kts 135°
2026-05-06 13:01 49.16910 10.19317 22814 ft 378 kts 135°
2026-05-06 13:02 49.15148 10.22321 22810 ft 378 kts 135°
2026-05-06 13:02 49.13391 10.25308 22822 ft 378 kts 136°
2026-05-06 13:02 49.11599 10.28259 22837 ft 378 kts 137°
2026-05-06 13:02 49.09789 10.31174 22843 ft 378 kts 137°
2026-05-06 13:03 49.07982 10.34050 22839 ft 377 kts 138°
2026-05-06 13:03 49.06153 10.36953 22840 ft 384 kts 138°
2026-05-06 13:03 49.04242 10.39977 22833 ft 405 kts 138°
2026-05-06 13:03 49.02262 10.43116 22836 ft 421 kts 137°
2026-05-06 13:04 49.00201 10.46397 22838 ft 436 kts 137°
2026-05-06 13:04 48.98080 10.49777 22835 ft 448 kts 137°
2026-05-06 13:04 48.95894 10.53263 22839 ft 458 kts 137°
2026-05-06 13:04 48.93672 10.56807 22834 ft 466 kts 137°
2026-05-06 13:05 48.91419 10.60404 22836 ft 469 kts 137°
2026-05-06 13:05 48.89179 10.63982 22837 ft 469 kts 137°
2026-05-06 13:05 48.86921 10.67583 22831 ft 469 kts 137°
2026-05-06 13:05 48.84665 10.71168 22827 ft 469 kts 138°
2026-05-06 13:06 48.82433 10.74698 22821 ft 468 kts 138°
2026-05-06 13:06 48.80178 10.78260 22813 ft 468 kts 138°
2026-05-06 13:06 48.77919 10.81816 22810 ft 468 kts 138°
2026-05-06 13:06 48.75662 10.85359 22800 ft 467 kts 138°
2026-05-06 13:07 48.73393 10.88905 22791 ft 467 kts 139°
2026-05-06 13:07 48.71130 10.92432 22787 ft 467 kts 139°
2026-05-06 13:07 48.68856 10.95973 22777 ft 467 kts 139°
2026-05-06 13:07 48.66594 10.99499 22772 ft 467 kts 139°
2026-05-06 13:08 48.64321 11.03038 22772 ft 467 kts 139°
2026-05-06 13:08 48.62813 11.05381 22773 ft 467 kts 139°
2026-05-06 13:08 48.59886 11.09932 22175 ft 438 kts 139°
2026-05-06 13:08 48.57773 11.13053 21921 ft 403 kts 147°
2026-05-06 13:09 48.56291 11.14647 21821 ft 381 kts 151°
2026-05-06 13:09 48.54165 11.16875 21342 ft 367 kts 147°
2026-05-06 13:09 48.52509 11.19806 20586 ft 373 kts 122°
2026-05-06 13:09 48.51819 11.23553 19787 ft 383 kts 97°
2026-05-06 13:10 48.51969 11.27587 18915 ft 386 kts 85°
2026-05-06 13:10 48.52500 11.31577 18096 ft 386 kts 79°
2026-05-06 13:10 48.53205 11.35471 17204 ft 383 kts 77°
2026-05-06 13:10 48.53943 11.39332 16381 ft 379 kts 77°
2026-05-06 13:11 48.54610 11.43030 16205 ft 356 kts 79°
2026-05-06 13:11 48.55197 11.46590 15848 ft 343 kts 80°
2026-05-06 13:11 48.55617 11.50085 15284 ft 332 kts 94°
2026-05-06 13:11 48.55132 11.53316 14736 ft 313 kts 124°
2026-05-06 13:12 48.53750 11.55671 14163 ft 295 kts 152°
2026-05-06 13:12 48.51893 11.56802 13565 ft 283 kts 176°
2026-05-06 13:12 48.49785 11.56554 12856 ft 274 kts 198°
2026-05-06 13:12 48.48133 11.55832 12246 ft 274 kts 199°
2026-05-06 13:13 48.46323 11.55028 11640 ft 273 kts 198°
2026-05-06 13:13 48.44502 11.54219 11017 ft 272 kts 198°
2026-05-06 13:13 48.42713 11.53461 10754 ft 259 kts 193°
2026-05-06 13:13 48.40995 11.53291 10632 ft 243 kts 179°
2026-05-06 13:14 48.39274 11.53063 9171 ft 269 kts 204°
2026-05-06 13:14 48.37640 11.51558 8314 ft 274 kts 213°
2026-05-06 13:14 48.36039 11.50138 7519 ft 276 kts 206°
2026-05-06 13:14 48.34257 11.49799 7086 ft 247 kts 168°
2026-05-06 13:15 48.33093 11.51244 6528 ft 209 kts 113°
2026-05-06 13:15 48.33231 11.53246 6004 ft 195 kts 66°
2026-05-06 13:15 48.33837 11.54962 5698 ft 175 kts 65°
2026-05-06 13:15 48.34378 11.56472 5423 ft 157 kts 64°
2026-05-06 13:16 48.34827 11.58108 4530 ft 175 kts 77°
2026-05-06 13:16 48.34989 11.59884 3845 ft 175 kts 85°
2026-05-06 13:16 48.35106 11.61629 3515 ft 159 kts 84°
2026-05-06 13:16 48.35223 11.63214 3311 ft 147 kts 82°
2026-05-06 13:17 48.35337 11.64703 3112 ft 136 kts 84°
2026-05-06 13:17 48.35444 11.66083 2935 ft 132 kts 82°
2026-05-06 13:17 48.35547 11.67408 2780 ft 128 kts 82°
2026-05-06 13:17 48.35654 11.68738 2540 ft 128 kts 81°
2026-05-06 13:18 48.35766 11.70053 2355 ft 126 kts 82°
2026-05-06 13:18 48.35849 11.71384 2134 ft 126 kts 81°
2026-05-06 13:18 48.35949 11.72703 2002 ft 127 kts 81°
2026-05-06 13:18 48.36064 11.74011 1847 ft 125 kts 80°
2026-05-06 13:19 48.36160 11.75302 1689 ft 124 kts 81°
2026-05-06 13:19 48.36264 11.76611 1539 ft 126 kts 81°
2026-05-06 13:19 48.36356 11.77808 1480 ft 97 kts 83°
2026-05-06 13:19 48.36402 11.78381 1485 ft 33 kts 84°
2026-05-06 13:20 48.36406 11.78706 1479 ft 26 kts 104°
2026-05-06 13:20 48.36349 11.78928 1476 ft 16 kts 114°
2026-05-06 13:20 48.36303 11.79085 1483 ft 17 kts 114°
2026-05-06 13:20 48.36256 11.79253 1481 ft 18 kts 112°
2026-05-06 13:21 48.36204 11.79423 1481 ft 16 kts 113°
2026-05-06 13:21 48.36132 11.79465 1476 ft 11 kts 171°
2026-05-06 13:21 48.36052 11.79489 1480 ft 12 kts 169°
2026-05-06 13:21 48.35964 11.79501 1486 ft 12 kts 174°
2026-05-06 13:22 48.35882 11.79515 1479 ft 12 kts 173°
2026-05-06 13:22 48.35795 11.79531 1485 ft 13 kts 173°
2026-05-06 13:22 48.35701 11.79547 1486 ft 14 kts 174°
2026-05-06 13:22 48.35602 11.79563 1485 ft 12 kts 173°
2026-05-06 13:23 48.35575 11.79616 1486 ft 7 kts 97°
2026-05-06 13:23 48.35580 11.79696 1486 ft 8 kts 83°
2026-05-06 13:23 48.35583 11.79730 1486 ft 0 kts 83°